[[{"header":{"parameterUnit":"m.s-1","parameterCategory":1,"la1":30.2992,"la2":30.254,"lo1":-89.0895,"lo2":-89.0443,"dy":0.0025,"dx":0.0025,"nx":19,"ny":19,"refTime":"2026-05-15T03:00:00:Z","depth":0,"parameterNumber":2,"parameterNumberName":"U-component_of_WINDS"},"data":[0,0,0,-1.4771,-1.4772,-1.4828,-1.4828,-1.49,-1.49,0,0,0,0,0,0,0,0,0,0,0,-1.4754,-1.4754,-1.4771,-1.4772,-1.4828,-1.4828,-1.49,-1.49,0,0,0,0,0,0,0,0,0,0,0,-1.4753,-1.4754,-1.4755,-1.4773,-1.4828,-1.4828,-1.49,-1.4858,0,0,0,0,0,0,0,0,0,0,-1.4804,-1.4786,-1.4754,-1.4755,-1.4773,-1.4828,-1.4828,-1.4856,-1.486,-1.4874,0,-1.4885,0,-1.4894,-1.4905,-1.4905,0,0,0,-1.4774,-1.4783,-1.4798,-1.4755,-1.4773,-1.4828,-1.4803,-1.4858,-1.4864,-1.4881,-1.4886,-1.4889,-1.4895,-1.4906,-1.4906,-1.4979,-1.4979,0,0,-1.4771,-1.4764,-1.4795,-1.4802,-1.4791,-1.4801,-1.4805,-1.4862,-1.4868,-1.4887,-1.4891,-1.4896,-1.4906,-1.4907,-1.4979,-1.4979,0,0,0,-1.4761,-1.4761,-1.4776,-1.4799,-1.4808,-1.4803,-1.4807,-1.4866,-1.4871,-1.4892,-1.4897,-1.4906,-1.4907,-1.4979,-1.4979,-1.4985,0,0,0,-1.4759,-1.4756,-1.4774,-1.4771,-1.4807,-1.4837,-1.481,-1.4867,-1.4873,-1.4897,-1.4907,-1.4908,-1.4978,-1.4979,-1.4984,-1.4989,0,0,0,-1.4751,-1.4755,-1.4762,-1.477,-1.4793,-1.4837,-1.4845,-1.4868,-1.4877,-1.4905,-1.4908,-1.4978,-1.4979,-1.4983,-1.4988,-1.5005,0,0,0,-1.474,-1.4768,-1.4762,-1.4796,-1.4793,-1.4839,-1.4845,-1.488,-1.4906,-1.4907,-1.4978,-1.4979,-1.4983,-1.4987,-1.5004,-1.5018,-1.5023,0,0,-1.4771,-1.4772,-1.4792,-1.4788,-1.4834,-1.4832,-1.4879,-1.491,-1.492,-1.4959,-1.4961,-1.4984,-1.4987,-1.5005,-1.5055,-1.5059,0,0,0,-1.48,-1.4814,-1.4828,-1.4851,-1.4874,-1.4894,-1.4918,-1.493,-1.4963,-1.4938,-1.4996,-1.4998,-1.5009,-1.5015,-1.5019,-1.5028,-1.4982,-1.4982,-1.4982,-1.4835,-1.4845,-1.4879,-1.4896,-1.4918,-1.4942,-1.4961,-1.4981,-1.4986,-1.5,-1.5011,-1.504,-1.5048,-1.5051,-1.506,-1.502,-1.502,-1.502,-1.502,-1.4882,-1.4904,-1.4908,-1.4943,-1.4954,-1.4984,-1.5009,-1.5011,-1.5041,-1.5033,-1.5043,-1.5032,-1.5055,-1.5064,-1.5021,-1.5021,-1.5021,-1.5021,-1.502,-1.4905,-1.4917,-1.493,-1.4963,-1.4988,-1.5005,-1.5033,-1.5043,-1.5052,-1.5062,-1.5075,-1.5075,-1.5075,-1.5067,-1.5067,-1.5068,-1.5068,-1.5068,-1.5068,-1.4924,-1.4938,-1.496,-1.4986,-1.5001,-1.5023,-1.5047,-1.5064,-1.5084,-1.5089,-1.5089,-1.5092,-1.5055,-1.5045,-1.5069,-1.5069,-1.5069,-1.5069,-1.5069,-1.4967,-1.4959,-1.4992,-1.5007,-1.5039,-1.5062,-1.5074,-1.5106,-1.5121,-1.5134,-1.5136,-1.5107,-1.5108,-1.5105,-1.5097,-1.5134,-1.5134,-1.5134,-1.5134,-1.4987,-1.4988,-1.5023,-1.5047,-1.5071,-1.5085,-1.5123,-1.5142,-1.5162,-1.5171,-1.5168,-1.5158,-1.5155,-1.5158,-1.5154,-1.5146,-1.5195,-1.5195,-1.5195,-1.5013,-1.5017,-1.5047,-1.5063,-1.5088,-1.511,-1.5146,-1.5174,-1.5194,-1.5198,-1.5179,-1.5177,-1.5161,-1.5155,-1.5158,-1.5152,-1.5138,0,0]},{"header":{"parameterUnit":"m.s-1","parameterCategory":1,"la1":30.2992,"la2":30.254,"lo1":-89.0895,"lo2":-89.0443,"dy":0.0025,"dx":0.0025,"nx":19,"ny":19,"refTime":"2026-05-15T03:00:00:Z","depth":0,"parameterNumber":3,"parameterNumberName":"V-component_of_WINDS"},"data":[0,0,0,2.6063,2.6066,2.6231,2.6231,2.6427,2.6429,0,0,0,0,0,0,0,0,0,0,0,2.6007,2.6008,2.6063,2.6067,2.623,2.6231,2.6427,2.6429,0,0,0,0,0,0,0,0,0,0,0,2.6006,2.6007,2.6009,2.6067,2.623,2.6231,2.6426,2.6307,0,0,0,0,0,0,0,0,0,0,2.615,2.6091,2.6007,2.6009,2.6068,2.623,2.6231,2.6302,2.6315,2.6347,0,2.6374,0,2.6404,2.6441,2.6442,0,0,0,2.6072,2.608,2.6131,2.6009,2.6069,2.623,2.6158,2.6309,2.6324,2.6364,2.6377,2.6384,2.6407,2.6442,2.6443,2.6607,2.6607,0,0,2.6063,2.6032,2.6121,2.614,2.6115,2.6153,2.6163,2.6318,2.633,2.6378,2.6389,2.6411,2.6443,2.6445,2.6606,2.6607,0,0,0,2.6033,2.6025,2.6073,2.6132,2.6163,2.6157,2.6169,2.6323,2.6342,2.6391,2.6413,2.6444,2.6447,2.6606,2.6606,2.6598,0,0,0,2.6028,2.6008,2.6069,2.6051,2.6159,2.6245,2.6171,2.6331,2.6349,2.6412,2.6445,2.6448,2.6605,2.6606,2.6597,2.6599,0,0,0,2.5999,2.6005,2.6026,2.6049,2.6119,2.6244,2.6271,2.6336,2.6362,2.6442,2.6449,2.6605,2.6606,2.6596,2.6598,2.663,0,0,0,2.5958,2.6018,2.6025,2.6101,2.6117,2.6238,2.627,2.6362,2.6429,2.6445,2.6605,2.6606,2.6596,2.6597,2.6629,2.665,2.6656,0,0,2.6016,2.6024,2.6071,2.6082,2.6192,2.6215,2.6325,2.6417,2.6454,2.6553,2.6558,2.6597,2.6597,2.663,2.6707,2.6712,0,0,0,2.6079,2.6111,2.6148,2.6209,2.628,2.634,2.6419,2.6453,2.6538,2.6499,2.662,2.6621,2.6641,2.6653,2.6657,2.6675,2.6611,2.6611,2.6611,2.6116,2.6158,2.6237,2.6298,2.6358,2.6436,2.6488,2.6546,2.6574,2.6602,2.6631,2.6672,2.6685,2.6688,2.6706,2.6647,2.6647,2.6647,2.6647,2.6203,2.6254,2.6286,2.6374,2.6418,2.6492,2.6569,2.6585,2.666,2.6655,2.6675,2.6663,2.6692,2.671,2.6647,2.6647,2.6647,2.6647,2.6647,2.623,2.6261,2.63,2.6391,2.6457,2.6518,2.6586,2.6625,2.6662,2.6682,2.6715,2.6715,2.6718,2.6695,2.6695,2.6696,2.6696,2.6696,2.6696,2.6241,2.6285,2.6338,2.6416,2.6458,2.652,2.6598,2.6641,2.6699,2.6722,2.6722,2.6744,2.6688,2.6671,2.6698,2.6698,2.6698,2.6697,2.6697,2.6309,2.6299,2.638,2.6423,2.6515,2.6576,2.6624,2.6708,2.675,2.6782,2.6801,2.6753,2.6764,2.6761,2.6747,2.6793,2.6793,2.6793,2.6793,2.6329,2.6338,2.6428,2.6493,2.6561,2.6612,2.6701,2.6761,2.6822,2.685,2.685,2.6836,2.6831,2.6844,2.684,2.6827,2.6892,2.6892,2.6893,2.6372,2.6389,2.6456,2.6515,2.6589,2.6652,2.6736,2.6808,2.6876,2.6897,2.6872,2.6868,2.6846,2.6837,2.6855,2.6847,2.6825,0,0]}]]